Regional Weather Roundup
Issued by NWS

Home | Current Version | Previous Version | Graphics & Text | Print | Product List | Glossary On
Versions: 1 2 3 4 5 6 7 8 9 10 11 12 13 14 15 16 17 18 19 20 21 22 23 24 25 26 27 28 29 30 31 32 33 34 35 36 37 38 39 40 41 42 43 44 45 46 47 48 49 50
000
ASUS43 KFSD 302302
RWRSD

WEATHER ROUNDUP FOR SOUTH DAKOTA
NATIONAL WEATHER SERVICE SIOUX FALLS SD
600 PM CDT SUN APR 30 2017

NOTE: "FAIR" INDICATES FEW OR NO CLOUDS BELOW 12,000 FEET WITH NO
SIGNIFICANT WEATHER AND/OR OBSTRUCTIONS TO VISIBILITY.


SDZ001>005-009-010-012>017-010000-
NORTHWEST AND NORTH CENTRAL SOUTH DAKOTA

CITY           SKY/WX    TMP DP  RH WIND       PRES   REMARKS
BUFFALO          N/A     61  17  18 VRB6      29.81F
FAITH            N/A     61  24  24 N13       29.85F
MOBRIDGE       PTSUNNY   63  14  15 NE15      29.82F
$$

SDZ012>016-024>037-041>051-057-063-072>074-010000-
SOUTHWEST AND SOUTH CENTRAL SOUTH DAKOTA

CITY           SKY/WX    TMP DP  RH WIND       PRES   REMARKS
RAPID CTY ARPT SUNNY     60  23  24 N13       29.86S
PIERRE         CLOUDY    57  19  22 NE17      29.81F
CUSTER         SUNNY     51  19  28 E8        29.86F
ELLSWORTH AFB  SUNNY     60  20  21 NE15      29.86F
PHILIP         PTSUNNY   59  23  25 N13G22    29.83F
PINE RIDGE     CLOUDY    59  21  23 N21G28    29.83F
SPEARFISH      FAIR      57  21  24 NW10      29.89F
WINNER         FAIR      51  24  34 NE13      29.79F
$$

SDZ004>011-016>023-039-040-010000-
NORTHEAST SOUTH DAKOTA

CITY           SKY/WX    TMP DP  RH WIND       PRES   REMARKS
ABERDEEN       CLOUDY    56  16  20 NE16      29.84F
WATERTOWN      LGT RAIN  43  34  70 NE17G25   29.79S
BROOKINGS      RAIN      40  37  89 NE20G28   29.75R
SISSETON         N/A     54  25  32 E16       29.83F
$$

SDZ017-020-022-023-036>040-048>070-010000-
SOUTHEAST SOUTH DAKOTA

CITY           SKY/WX    TMP DP  RH WIND       PRES   REMARKS
SIOUX FALLS    RAIN      39  39 100 NE21G29   29.71S FOG
HURON          CLOUDY    50  26  39 NE13G22   29.80S
CHAMBERLAIN    CLOUDY    52  23  31 N10       29.79F
MITCHELL       RAIN      40  38  93 N14       29.78F FOG
YANKTON        CLOUDY    37  34  87 NE15      29.74R
$$

ABBREVIATIONS USED IN REMARKS
   TC - TEMPERATURE IN CELSIUS
  WCI - WIND CHILL INDEX
   HX - HEAT INDEX
  VSB - VISIBILITY




USA.gov is the U.S. government's official web portal to all federal, state and local government web resources and services.